STARLINK-31095 (58683 NORAD) Tracking and Keplerian Element Data

This shows tracking and keplerian element data for the satellite.

Feedback or suggestion? Click here.




ElementValue
Catalog58683
NameSTARLINK-31095
Epoch Orbit351
Epoch Day13.25002315
Epoch Year2024
RAAN202.0676
Inclination43.0009
Eccentricity0.0001875
Argument of Perigee278.5869
Mean Anonmoly53.177
Mean Motion15.72974096
Decay Rate-0.01749619
L11 58683U 23211S 24013.25002315 -.01749619 00000+0 -14160-1 0 9998
L22 58683 43.0009 202.0676 0001875 278.5869 53.1770 15.72974096 3519



Live tracking and technical data element details for STARLINK-31095 (NORAD 58683). STARLINK-31095 can be tracked NOW for your location showing map with azimuth and elevation plus other details from your city location.







IsCatalogInMostPopularTable: catalog: 58683, numindb: 22
Update: records affected: 1



GetName: 58683 STARLINK-31095

Hit Count: updated at: Wed, 17 Apr 2024 03:25:16 GMT